[[{"header":{"parameterUnit":"m.s-1","parameterCategory":1,"la1":30.2991,"la2":30.254,"lo1":-89.0895,"lo2":-89.0444,"dy":0.0017,"dx":0.0017,"nx":28,"ny":28,"refTime":"2024-11-30T03:00:00:Z","depth":0,"parameterNumber":2,"parameterNumberName":"U-component_of_WINDS"},"data":[0,0,0,0,0,0,0,0,0,0,0,0,0,0,0,0,0,0,0,0,0,0,0,0,0,0,0,0,0,0,0,0,0,0,0,0,0,0,0,0,0,0,0,0,0,0,0,0,0,0,0,0,0,0,0,0,0,0,-3.17,-3.17,0,-3.1789,-3.179,-3.1791,-3.1769,-3.1767,-3.1765,-3.1764,-3.1853,-3.1857,-3.186,0,0,0,0,0,0,0,0,0,0,0,0,0,-3.1505,-3.1509,-3.1699,-3.1701,-3.1702,-3.1789,-3.179,-3.1792,-3.1769,-3.1767,-3.1765,-3.1763,-3.1851,-3.1856,-3.1861,0,0,0,0,0,0,0,0,0,0,0,0,0,-3.1591,-3.151,-3.1699,-3.1701,-3.1702,-3.1789,-3.179,-3.1792,-3.177,-3.1767,-3.1764,-3.1762,-3.185,-3.1856,-3.1861,-3.1951,0,0,-3.188,-3.1882,0,0,0,0,0,0,0,0,-3.1587,-3.1599,-3.17,-3.1701,-3.1703,-3.1765,-3.1754,-3.1845,-3.177,-3.1744,-3.1764,-3.1761,-3.1825,-3.1833,-3.1856,-3.1955,-3.1959,-3.188,-3.1884,-3.1887,-3.1888,0,0,0,0,0,0,0,-3.1581,-3.1595,-3.1735,-3.1701,-3.1703,-3.1696,-3.1706,-3.1771,-3.1798,-3.1746,-3.1745,-3.1756,-3.1826,-3.185,-3.1858,-3.196,-3.188,-3.1885,-3.1889,-3.1892,-3.2135,-3.2138,0,0,0,0,0,0,-3.1574,-3.159,-3.1732,-3.1738,-3.1637,-3.1702,-3.1712,-3.1748,-3.1797,-3.1803,-3.1758,-3.1754,-3.1841,-3.1851,-3.1861,-3.1967,-3.1886,-3.1892,-3.1896,-3.2132,-3.2136,-3.2139,0,0,0,0,0,0,-3.157,-3.1587,-3.1728,-3.1663,-3.1681,-3.1708,-3.1748,-3.1751,-3.1775,-3.1806,-3.1811,-3.1778,-3.1839,-3.1852,-3.1928,-3.1969,-3.1895,-3.19,-3.2129,-3.2133,-3.2137,-3.218,0,0,0,0,0,0,-3.1564,-3.1586,-3.1621,-3.1664,-3.1685,-3.1796,-3.1751,-3.1755,-3.1786,-3.1782,-3.1827,-3.1831,-3.1838,-3.192,-3.1934,-3.1976,-3.1905,-3.2125,-3.2131,-3.2136,-3.2175,-3.2185,-3.2194,0,0,0,0,0,-3.1558,-3.1629,-3.1622,-3.164,-3.1729,-3.1798,-3.1809,-3.1817,-3.1789,-3.1824,-3.1844,-3.183,-3.1963,-3.1928,-3.1944,-3.1988,-3.2123,-3.2129,-3.2136,-3.2171,-3.2183,-3.2194,0,0,0,0,0,0,-3.1588,-3.1635,-3.1628,-3.1716,-3.1753,-3.1794,-3.1838,-3.183,-3.1875,-3.187,-3.1877,-3.1887,-3.1964,-3.1984,-3.1944,-3.2077,-3.2039,-3.2049,-3.206,-3.2072,-3.2081,-3.2073,-3.191,0,0,0,0,0,-3.1605,-3.1659,-3.1696,-3.177,-3.1789,-3.1811,-3.1841,-3.1844,-3.1882,-3.1897,-3.1923,-3.196,-3.201,-3.2043,-3.2091,-3.2179,-3.2187,-3.2218,-3.2227,-3.2235,-3.2242,-3.2288,-3.2302,-3.216,-3.216,-3.216,0,0,-3.1641,-3.1673,-3.1706,-3.1777,-3.1806,-3.1859,-3.1824,-3.1882,-3.1921,-3.1906,-3.1979,-3.1999,-3.2041,-3.2123,-3.216,-3.2142,-3.2284,-3.2243,-3.2249,-3.2252,-3.2296,-3.231,-3.2322,-3.2165,-3.2164,-3.2163,0,0,-3.1732,-3.1763,-3.1826,-3.1857,-3.1902,-3.1916,-3.1931,-3.1974,-3.1986,-3.206,-3.2049,-3.2096,-3.2183,-3.2212,-3.2238,-3.2341,-3.2329,-3.2357,-3.2405,-3.245,-3.2461,-3.2471,-3.2505,-3.2517,-3.2365,-3.2365,-3.2365,0,-3.1769,-3.1851,-3.186,-3.1919,-3.195,-3.194,-3.2003,-3.2032,-3.209,-3.2111,-3.209,-3.2198,-3.2226,-3.2313,-3.2338,-3.2361,-3.2377,-3.235,-3.2459,-3.2469,-3.2478,-3.2511,-3.2524,-3.2368,-3.2368,-3.2368,-3.2367,0,-3.1894,-3.195,-3.1996,-3.2053,-3.2089,-3.215,-3.2167,-3.2203,-3.2203,-3.2218,-3.2293,-3.2326,-3.2379,-3.2401,-3.2402,-3.2489,-3.2476,-3.2458,-3.2419,-3.2495,-3.2525,-3.2538,-3.2372,-3.2371,-3.237,-3.237,0,0,-3.2004,-3.2066,-3.2082,-3.2107,-3.2157,-3.22,-3.226,-3.2313,-3.2342,-3.2384,-3.2432,-3.2506,-3.249,-3.252,-3.2524,-3.2563,-3.2639,-3.254,-3.2541,-3.2554,-3.2734,-3.2745,-3.276,-3.2633,-3.2636,-3.2638,-3.273,0,-3.2098,-3.2204,-3.2214,-3.2309,-3.236,-3.2352,-3.2404,-3.2439,-3.2456,-3.25,-3.2519,-3.257,-3.2545,-3.2563,-3.2602,-3.2622,-3.2675,-3.2616,-3.2676,-3.2678,-3.2663,-3.2776,-3.2788,-3.2873,-3.2742,-3.2744,-3.2746,0,-3.222,-3.2265,-3.2365,-3.2406,-3.2427,-3.2474,-3.2523,-3.2567,-3.2606,-3.2615,-3.2649,-3.2648,-3.2708,-3.267,-3.2753,-3.2712,-3.2738,-3.2751,-3.2755,-3.2758,-3.2714,-3.2779,-3.2901,-3.2912,-3.2765,-3.2763,-3.2762,0,-3.2287,-3.2372,-3.2443,-3.2465,-3.2515,-3.2548,-3.257,-3.2607,-3.2638,-3.2681,-3.2701,-3.275,-3.2777,-3.2814,-3.2826,-3.2798,-3.2907,-3.287,-3.2914,-3.2914,-3.2934,-3.2932,-3.3059,-3.2957,-3.2957,-3.2956,-3.2956,0,-3.2388,-3.2449,-3.2473,-3.2516,-3.2583,-3.2595,-3.2661,-3.2681,-3.2714,-3.276,-3.2757,-3.2799,-3.2814,-3.2859,-3.2868,-3.2933,-3.2946,-3.2954,-3.2955,-3.2952,-3.2951,-3.2966,-3.2959,-3.296,-3.2959,-3.2958,-3.2958,0,-3.2473,-3.2492,-3.2568,-3.261,-3.2621,-3.2669,-3.2704,-3.2745,-3.2761,-3.2819,-3.2833,-3.2858,-3.2911,-3.2927,-3.2991,-3.2997,-3.3072,-3.307,-3.3059,-3.3058,-3.31,-3.3094,-3.3238,-3.3256,-3.3145,-3.3146,-3.3147,0,-3.2534,-3.2581,-3.2628,-3.2658,-3.2682,-3.2732,-3.2764,-3.2777,-3.2809,-3.2858,-3.2892,-3.2944,-3.2986,-3.3071,-3.3094,-3.3142,-3.3139,-3.3186,-3.3146,-3.3141,-3.3136,-3.3132,-3.3135,-3.3192,-3.3194,-3.3195,-3.3195,0,-3.2641,-3.2648,-3.2694,-3.2743,-3.2781,-3.2821,-3.2859,-3.2884,-3.2902,-3.2939,-3.2993,-3.3026,-3.3091,-3.3142,-3.3191,-3.3213,-3.3206,-3.3209,-3.322,-3.3216,-3.3207,-3.3209,-3.3076,-3.3204,-3.3203,-3.3203,-3.3202,-3.3202,-3.2713,-3.2754,-3.2793,-3.2844,-3.2874,-3.2909,-3.2949,-3.2971,-3.3016,-3.307,-3.3075,-3.3133,-3.317,-3.3236,-3.326,-3.3305,-3.3291,-3.3309,-3.3313,-3.3316,-3.3318,-3.3203,-3.3314,-3.3314,-3.3314,-3.3314,-3.3313,0,-3.2817,-3.2842,-3.2889,-3.2942,-3.2982,-3.2975,-3.3016,-3.3049,-3.31,-3.3136,-3.3178,-3.3239,-3.3289,-3.3317,-3.3366,-3.3396,-3.3394,-3.3408,-3.3404,-3.3409,-3.3329,-3.3313,-3.3409,-3.3409,-3.3409,-3.3409,-3.3409,-3.3409,-3.2875,-3.2942,-3.2953,-3.3035,-3.3059,-3.3116,-3.314,-3.3172,-3.32,-3.3269,-3.331,-3.3329,-3.3361,-3.3412,-3.3457,-3.3464,-3.3481,-3.3496,-3.3501,-3.3425,-3.3415,-3.3405,-3.3389,-3.35,-3.35,-3.3576,-3.3577,-3.3577]},{"header":{"parameterUnit":"m.s-1","parameterCategory":1,"la1":30.2991,"la2":30.254,"lo1":-89.0895,"lo2":-89.0444,"dy":0.0017,"dx":0.0017,"nx":28,"ny":28,"refTime":"2024-11-30T03:00:00:Z","depth":0,"parameterNumber":3,"parameterNumberName":"V-component_of_WINDS"},"data":[0,0,0,0,0,0,0,0,0,0,0,0,0,0,0,0,0,0,0,0,0,0,0,0,0,0,0,0,0,0,0,0,0,0,0,0,0,0,0,0,0,0,0,0,0,0,0,0,0,0,0,0,0,0,0,0,0,0,-0.3022,-0.3022,0,-0.3029,-0.303,-0.303,-0.3063,-0.3064,-0.3065,-0.3066,-0.3073,-0.3072,-0.3072,0,0,0,0,0,0,0,0,0,0,0,0,0,-0.3036,-0.3036,-0.3022,-0.3022,-0.3022,-0.3029,-0.303,-0.303,-0.3063,-0.3064,-0.3065,-0.3066,-0.3073,-0.3072,-0.3071,0,0,0,0,0,0,0,0,0,0,0,0,0,-0.3035,-0.3035,-0.3022,-0.304,-0.3042,-0.3029,-0.303,-0.303,-0.3063,-0.3064,-0.3065,-0.3066,-0.3073,-0.3072,-0.3071,-0.3042,0,0,-0.3069,-0.3068,0,0,0,0,0,0,0,0,-0.3035,-0.3035,-0.3037,-0.3039,-0.304,-0.3047,-0.3037,-0.3034,-0.3063,-0.3055,-0.3066,-0.3067,-0.3063,-0.3063,-0.3062,-0.3043,-0.3043,-0.3069,-0.3068,-0.3068,-0.3068,0,0,0,0,0,0,0,-0.3035,-0.3035,-0.3025,-0.3037,-0.3039,-0.3047,-0.3048,-0.3037,-0.3052,-0.3056,-0.3058,-0.3059,-0.3064,-0.3063,-0.3062,-0.3043,-0.3069,-0.3068,-0.3068,-0.3067,-0.3,-0.2999,0,0,0,0,0,0,-0.3033,-0.3034,-0.3025,-0.3025,-0.3041,-0.3046,-0.3047,-0.3043,-0.3052,-0.3055,-0.3057,-0.306,-0.3063,-0.3063,-0.3063,-0.3029,-0.3068,-0.3067,-0.3067,-0.3002,-0.3,-0.2999,0,0,0,0,0,0,-0.3033,-0.3032,-0.3024,-0.3031,-0.303,-0.3044,-0.304,-0.3043,-0.3042,-0.3054,-0.3057,-0.3053,-0.3064,-0.3064,-0.3047,-0.303,-0.3067,-0.3066,-0.3003,-0.3001,-0.2999,-0.2962,0,0,0,0,0,0,-0.3033,-0.3032,-0.3021,-0.303,-0.303,-0.3009,-0.3039,-0.3042,-0.304,-0.3043,-0.305,-0.3053,-0.3065,-0.3048,-0.3046,-0.3029,-0.3065,-0.3005,-0.3002,-0.3,-0.2965,-0.2959,-0.2954,0,0,0,0,0,-0.3034,-0.301,-0.302,-0.3019,-0.3017,-0.3008,-0.3008,-0.3023,-0.3039,-0.3028,-0.3036,-0.3052,-0.3032,-0.3046,-0.3044,-0.3027,-0.3006,-0.3003,-0.3,-0.2967,-0.296,-0.2954,0,0,0,0,0,0,-0.2999,-0.3012,-0.3023,-0.3002,-0.3004,-0.3014,-0.3001,-0.3015,-0.3012,-0.3015,-0.3034,-0.3035,-0.3016,-0.302,-0.3035,-0.2999,-0.3022,-0.3018,-0.2997,-0.2991,-0.2985,-0.2985,-0.3065,0,0,0,0,0,-0.2989,-0.2981,-0.2992,-0.2972,-0.2973,-0.2986,-0.2983,-0.2994,-0.2997,-0.2998,-0.3005,-0.3006,-0.3,-0.2996,-0.2991,-0.2965,-0.2967,-0.2952,-0.2947,-0.2943,-0.2939,-0.2926,-0.2919,-0.2989,-0.2989,-0.2989,0,0,-0.2967,-0.2974,-0.2967,-0.2965,-0.2968,-0.2959,-0.2987,-0.2976,-0.297,-0.2996,-0.2981,-0.2986,-0.2989,-0.2967,-0.2958,-0.297,-0.292,-0.2939,-0.2935,-0.2935,-0.2922,-0.2916,-0.291,-0.2987,-0.2988,-0.2988,0,0,-0.2924,-0.2928,-0.2912,-0.2914,-0.2918,-0.2927,-0.2923,-0.2931,-0.2935,-0.292,-0.294,-0.2932,-0.2921,-0.2922,-0.2921,-0.2878,-0.2893,-0.2876,-0.2848,-0.2834,-0.2829,-0.2824,-0.2808,-0.2802,-0.2873,-0.2872,-0.2872,0,-0.2898,-0.2885,-0.2902,-0.289,-0.2888,-0.2912,-0.2895,-0.2896,-0.2898,-0.2896,-0.2909,-0.2896,-0.2899,-0.2879,-0.2868,-0.2866,-0.2862,-0.2875,-0.2828,-0.2824,-0.2819,-0.2805,-0.2799,-0.287,-0.2871,-0.2871,-0.2871,0,-0.2852,-0.2843,-0.2829,-0.283,-0.2827,-0.2812,-0.2827,-0.2821,-0.2833,-0.284,-0.2824,-0.283,-0.2826,-0.2822,-0.2833,-0.2802,-0.281,-0.2825,-0.2848,-0.281,-0.2797,-0.2791,-0.2867,-0.2868,-0.2869,-0.2869,0,0,-0.2787,-0.2797,-0.2792,-0.2793,-0.2798,-0.2791,-0.2778,-0.2774,-0.2769,-0.2769,-0.2758,-0.2748,-0.2763,-0.2762,-0.2773,-0.2761,-0.2726,-0.2778,-0.2779,-0.2768,-0.2692,-0.2681,-0.2674,-0.2736,-0.2735,-0.2734,-0.2692,0,-0.2746,-0.2723,-0.2738,-0.2713,-0.2705,-0.2727,-0.2715,-0.2717,-0.2723,-0.2717,-0.2724,-0.2717,-0.2737,-0.2736,-0.2725,-0.2733,-0.2711,-0.2736,-0.2726,-0.2725,-0.2724,-0.2667,-0.2654,-0.2614,-0.2687,-0.2686,-0.2685,0,-0.2695,-0.2693,-0.2667,-0.2674,-0.2671,-0.266,-0.2658,-0.2651,-0.2654,-0.2659,-0.2658,-0.2672,-0.2659,-0.2682,-0.2664,-0.268,-0.2677,-0.2679,-0.2678,-0.2678,-0.2703,-0.2665,-0.2602,-0.2596,-0.2677,-0.2678,-0.2678,0,-0.265,-0.264,-0.2624,-0.2624,-0.2632,-0.2623,-0.2626,-0.263,-0.2626,-0.2624,-0.2622,-0.2619,-0.2617,-0.2613,-0.2626,-0.2641,-0.2606,-0.263,-0.261,-0.2609,-0.2602,-0.2602,-0.2537,-0.2599,-0.2599,-0.2599,-0.26,0,-0.2602,-0.2585,-0.2604,-0.2594,-0.2576,-0.2592,-0.2574,-0.2579,-0.2582,-0.2572,-0.2591,-0.2582,-0.26,-0.2592,-0.2602,-0.2585,-0.2584,-0.2588,-0.2591,-0.2586,-0.2586,-0.2584,-0.2588,-0.2598,-0.2598,-0.2599,-0.2599,0,-0.2549,-0.256,-0.2544,-0.2552,-0.2554,-0.254,-0.2548,-0.2538,-0.2546,-0.2534,-0.2532,-0.2545,-0.2537,-0.2549,-0.2543,-0.2549,-0.2526,-0.2533,-0.2525,-0.2527,-0.2507,-0.2509,-0.2439,-0.2431,-0.2498,-0.2497,-0.2497,0,-0.2517,-0.2505,-0.2512,-0.2507,-0.2509,-0.2501,-0.2498,-0.2514,-0.251,-0.2511,-0.2502,-0.2495,-0.2491,-0.2478,-0.2486,-0.2481,-0.2488,-0.2464,-0.2488,-0.2483,-0.2488,-0.2488,-0.2487,-0.2459,-0.2458,-0.2458,-0.2457,0,-0.246,-0.2467,-0.2462,-0.2458,-0.2454,-0.2452,-0.2451,-0.2446,-0.2463,-0.2457,-0.2449,-0.2446,-0.244,-0.2433,-0.243,-0.2433,-0.2447,-0.245,-0.2445,-0.244,-0.2436,-0.2438,-0.2512,-0.2451,-0.2452,-0.2452,-0.2453,-0.2453,-0.2417,-0.2407,-0.241,-0.2404,-0.2405,-0.2404,-0.2396,-0.2402,-0.2396,-0.2392,-0.2402,-0.2392,-0.2394,-0.2392,-0.2393,-0.2385,-0.2395,-0.2388,-0.2387,-0.2385,-0.2381,-0.2437,-0.2384,-0.2385,-0.2385,-0.2385,-0.2385,0,-0.2361,-0.2364,-0.2358,-0.2357,-0.2351,-0.2366,-0.2366,-0.236,-0.2351,-0.2352,-0.2348,-0.2339,-0.2333,-0.234,-0.2335,-0.2327,-0.2334,-0.2325,-0.2326,-0.2326,-0.2372,-0.2377,-0.232,-0.232,-0.232,-0.232,-0.232,-0.232,-0.2331,-0.2315,-0.2322,-0.2306,-0.2309,-0.23,-0.2299,-0.2297,-0.2298,-0.2288,-0.2282,-0.2287,-0.2291,-0.2286,-0.2281,-0.2283,-0.2281,-0.227,-0.2274,-0.2317,-0.2323,-0.2329,-0.2334,-0.2269,-0.2269,-0.2229,-0.2229,-0.2229]}]]